Prudhoe Bay, AK

7:57 AM AKST on February 12, 2016 (GMT -0900)
Deadhorse

Weather History for PASC - July, 2013

Change the Weather History Date:

Tuesday, July 30, 2013

  Actual Average Record
Temperature  
Mean Temperature 48 °F -  
Max Temperature 61 °F 53 °F 72 °F (1992)
Min Temperature 37 °F 38 °F 30 °F (2014)
Degree Days  
Heating Degree Days 16    
Moisture  
Dew Point 45 °F    
Average Humidity 95    
Maximum Humidity 100    
Minimum Humidity 83    
Precipitation  
Precipitation 0.07 in - - ()
Sea Level Pressure  
Sea Level Pressure 30.12 in    
Wind  
Wind Speed 6 mph (South)    
Max Wind Speed 15 mph    
Max Gust Speed -    
Visibility 6 miles    
Events Fog , Rain    
Averages and records for this station are not official NWS values.
T = Trace of Precipitation, MM = Missing Value Source: NWS Daily Summary

Daily Weather History Graph

Daily Weather History Graph

Search for Another Location

Airport or City:

Trip Planner

Search our weather history database for the weather conditions in past years. The results will help you decide how hot, cold, wet, or windy it might be!

Date:

Astronomy

Jul. 30, 2013 Rise Set
Actual Time 2:57 AM AKDT 12:52 AM AKDT
Civil Twilight Sun does not rise Sun does not rise
Nautical Twilight Sun does not rise Sun does not rise
Astronomical Twilight Sun does not rise Sun does not rise
Moon 10:33 PM AKDT (7/30) 6:53 PM AKDT (7/30)
Length of Visible Light 24h 00m
Length of Day
21h 55m
Last Quarter, 39% of the Moon is Illuminated
Jul 30
Last Quarter
Aug 6
New
Aug 14
First Quarter
Aug 20
Full
Aug 28
Last Quarter

Hourly Weather History & Observations

Time (AKDT) Temp. Windchill Dew Point Humidity Pressure Visibility Wind Dir Wind Speed Gust Speed Precip Events Conditions
12:17 AM 37.4 °F 32.1 °F 37.4 °F 100% 30.18 in 1.8 mi NNW 6.9 mph - N/A   Overcast
12:24 AM 37.4 °F 32.1 °F 37.4 °F 100% 30.18 in 2.5 mi NNW 6.9 mph - N/A   Overcast
12:53 AM 37.0 °F 31.6 °F 37.0 °F 100% 30.19 in 2.0 mi North 6.9 mph - 0.00 in   Light Drizzle
1:53 AM 37.0 °F 34.5 °F 37.0 °F 100% 30.19 in 3.0 mi North 3.5 mph - 0.00 in   Light Drizzle
2:07 AM 37.4 °F 33.8 °F 37.4 °F 100% 30.19 in 2.5 mi North 4.6 mph - 0.00 in   Light Drizzle
2:34 AM 37.4 °F 33.8 °F 37.4 °F 100% 30.19 in 1.8 mi North 4.6 mph - 0.00 in   Light Drizzle
2:53 AM 37.0 °F 34.5 °F 37.0 °F 100% 30.19 in 1.5 mi North 3.5 mph - 0.00 in   Light Drizzle
3:53 AM 37.9 °F 35.5 °F 37.0 °F 97% 30.19 in 2.0 mi North 3.5 mph - 0.00 in   Overcast
4:04 AM 37.4 °F - 37.4 °F 100% 30.18 in 1.8 mi Calm Calm - N/A   Overcast
4:11 AM 37.4 °F - 37.4 °F 100% 30.18 in 2.5 mi Calm Calm - N/A   Overcast
4:53 AM 37.9 °F - 37.9 °F 100% 30.18 in 1.8 mi Calm Calm - N/A   Overcast
5:03 AM 39.2 °F - 37.4 °F 93% 30.17 in 2.5 mi Calm Calm - N/A   Overcast
5:14 AM 39.2 °F 35.9 °F 37.4 °F 93% 30.17 in 4.0 mi SSW 4.6 mph - N/A   Overcast
5:53 AM 39.9 °F - 39.0 °F 97% 30.17 in 4.0 mi Calm Calm - N/A   Overcast
6:11 AM 39.2 °F - 39.2 °F 100% 30.16 in 1.2 mi Calm Calm - N/A   Overcast
6:17 AM 39.2 °F - 39.2 °F 100% 30.16 in 0.8 mi Calm Calm - N/A   Overcast
6:53 AM 39.9 °F 35.1 °F 39.0 °F 97% 30.16 in 0.5 mi ESE 6.9 mph - N/A Fog Fog
7:17 AM 39.2 °F 35.0 °F 39.2 °F 100% 30.15 in 1.8 mi SSE 5.8 mph - N/A   Overcast
7:22 AM 39.2 °F 35.0 °F 39.2 °F 100% 30.15 in 3.0 mi SE 5.8 mph - N/A   Overcast
7:53 AM 41.0 °F 37.1 °F 39.9 °F 96% 30.15 in 6.0 mi SSE 5.8 mph - N/A   Overcast
8:21 AM 41.0 °F 37.1 °F 41.0 °F 100% 30.14 in 4.0 mi SE 5.8 mph - N/A   Overcast
8:53 AM 42.1 °F 37.7 °F 41.0 °F 96% 30.14 in 6.0 mi SE 6.9 mph - N/A   Overcast
9:30 AM 44.6 °F 40.7 °F 42.8 °F 93% 30.12 in 10.0 mi SE 6.9 mph - N/A   Overcast
9:53 AM 44.1 °F 40.1 °F 43.0 °F 96% 30.13 in 7.0 mi SSE 6.9 mph - N/A   Overcast
10:53 AM 46.9 °F - 44.1 °F 90% 30.11 in 10.0 mi ESE 6.9 mph - N/A   Overcast
11:05 AM 48.2 °F - 44.6 °F 87% 30.11 in 10.0 mi ESE 6.9 mph - N/A   Overcast
11:53 AM 50.0 °F - 45.0 °F 83% 30.11 in 10.0 mi SE 6.9 mph - N/A   Mostly Cloudy
12:53 PM 51.1 °F - 46.9 °F 86% 30.09 in 10.0 mi ESE 6.9 mph - 0.00 in   Overcast
1:53 PM 54.0 °F - 48.9 °F 83% 30.08 in 10.0 mi SE 9.2 mph - 0.00 in   Overcast
2:53 PM 54.0 °F - 51.1 °F 90% 30.07 in 10.0 mi SE 8.1 mph - 0.01 in Rain Light Rain
3:53 PM 57.0 °F - 53.1 °F 87% 30.06 in 9.0 mi SE 4.6 mph - 0.00 in Rain Light Rain
4:53 PM 60.1 °F - 55.0 °F 83% 30.04 in 10.0 mi SSW 5.8 mph - 0.00 in   Overcast
5:53 PM 60.1 °F - 55.0 °F 83% 30.04 in 10.0 mi WSW 11.5 mph - 0.00 in Rain Light Rain
6:53 PM 57.9 °F - 55.9 °F 93% 30.04 in 7.0 mi West 12.7 mph - 0.03 in Rain Light Rain
7:53 PM 57.0 °F - 55.0 °F 93% 30.04 in 9.0 mi WSW 9.2 mph - 0.02 in Rain Light Rain
8:53 PM 57.0 °F - 55.0 °F 93% 30.04 in 10.0 mi WSW 11.5 mph - 0.00 in   Overcast
9:00 PM 57.2 °F - 55.4 °F 94% 30.03 in 10.0 mi WSW 12.7 mph - 0.00 in Rain Light Rain
9:53 PM 57.0 °F - 55.0 °F 93% 30.04 in 10.0 mi SW 11.5 mph - 0.01 in   Overcast
10:38 PM 55.4 °F - 53.6 °F 94% 30.04 in 10.0 mi WSW 10.4 mph - 0.00 in Rain Light Rain
10:46 PM 55.4 °F - 53.6 °F 94% 30.04 in 10.0 mi WSW 13.8 mph - 0.00 in   Overcast
10:53 PM 55.9 °F - 54.0 °F 93% 30.05 in 10.0 mi WSW 15.0 mph - 0.00 in Rain Light Rain
11:25 PM 55.4 °F - 53.6 °F 94% 30.04 in 10.0 mi WSW 9.2 mph - 0.00 in   Overcast
11:53 PM 55.0 °F - 54.0 °F 96% 30.04 in 10.0 mi WSW 8.1 mph - 0.00 in   Overcast